Other Public Products
Issued by NWS Grand Forks, ND

Home | Current Version | Previous Version | Text Only | Print | Product List | Glossary On
Versions: 1 2 3 4 5 6 7 8 9 10 11 12 13 14 15 16 17 18 19 20 21 22 23 24 25 26 27 28 29 30 31 32 33 34 35 36 37 38 39 40 41 42 43 44 45 46 47 48 49 50
000
FPUS83 KFGF 221010
OPUFGF
PRAIRIE TO PINES WEATHER ROUNDUP
NATIONAL WEATHER SERVICE EASTERN NORTH DAKOTA/GRAND FORKS ND
400 AM CST SAT NOV 22 2014

 **SATELLITE DATA USED TO AUGMENT SKY COVER AT AUTOMATED STATIONS**
 *****  WEATHER ACROSS EASTERN NORTH DAKOTA  *****

CITY           SKY/WX    TMP DP  RH WIND       PRES   REMARKS
GRAND FORKS    CLEAR     24  22  91 S7        29.61F WCI  16
GRAND FORKS AF CLEAR     26  25  97 W6        29.61F WCI  19
GRAND CITY NWS   N/A     25 N/A N/A SW3         N/A
BUXTON         NOT AVBL
DEVILS LAKE    CLEAR     30  21  69 W8        29.58S WCI  23
FARGO          CLEAR     27  22  81 S9        29.66F WCI  18
WAHPETON ARPT  SUNNY     21  18  86 SE3       29.69F
$$

 *****  WEATHER ACROSS CENTRAL AND WESTERN NORTH DAKOTA  *****

CITY           SKY/WX    TMP DP  RH WIND       PRES   REMARKS
JAMESTOWN      CLEAR     30  24  78 SW7       29.63F WCI  23
BISMARCK       CLEAR     22  18  85 CALM      29.64F
MINOT          CLEAR     31  26  82 SW9       29.57F WCI  23
MINOT AFB      CLEAR     27  26  96 W2        29.57S
GARRISON         N/A     29  27  92 CALM      29.58F
WILLISTON      CLEAR     24  22  91 SW3       29.55F
DICKINSON      CLEAR     31  23  72 S10       29.57F WCI  22
HETTINGER      CLEAR     24  19  81 CALM      29.62F
$$

 *****  OTHER OBSERVATIONS NORTHEAST NORTH DAKOTA  *****

CITY           SKY/WX    TMP DP  RH WIND       PRES   REMARKS
WALHALLA         N/A     34  32  93 NE7       29.60S
LANGDON        FAIR      25  23  93 S7        29.57S WCI  17
CAVALIER       CLOUDY    36  32  87 NE7       29.59S
GRAFTON        FAIR      28  27  93 W5        29.60F WCI  23
CANDO          FAIR      23  21  93 W8        29.59S WCI  14
FORT TOTTEN    NOT AVBL
ROLLA          FAIR      28  28 100 SW8       29.56S WCI  20
RUGBY          FAIR      25  25 100 SW3       29.58F
 ***** THE ABOVE OBSERVATIONS ARE NON NWS ARE NOT QUALITY
        CONTROLLED AND MAY MIS-REPORT RAIN FOR SNOW...
$$

 *****  OTHER OBSERVATIONS SOUTHEAST NORTH DAKOTA *****

CITY           SKY/WX    TMP DP  RH WIND       PRES   REMARKS
COOPERSTOWN    NOT AVBL
VALLEY CITY    FAIR      23  23 100 SW8       29.63F WCI  14
OAKES            N/A     23  23 100 S12       29.67F WCI  12
GWINNER        SUNNY     28  27  93 SW14      29.69S WCI  17
SHEYENNE NWR     N/A     26  23  88 SW7       29.95  WCI  18
BUFFALO        NOT AVBL
WYNDMERE         N/A     30  27  86 SW7         N/A  WCI  23
 ***** THE ABOVE OBSERVATIONS ARE NON NWS ARE NOT QUALITY
       CONTROLLED AND MAY MIS-REPORT RAIN FOR SNOW...
$$

  *****  WEATHER ACROSS NORTHERN MINNESOTA  *****

CITY           SKY/WX    TMP DP  RH WIND       PRES   REMARKS
FLAG ISLAND    CLOUDY    30  27  86 SW5       29.57S
WARROAD        CLOUDY    32  28  86 S5        29.59S
ROSEAU         CLOUDY    34  28  80 SW6       29.60R
HALLOCK        CLOUDY    34  30  86 CALM      29.60S
THF RVR FALLS  CLEAR     27  23  86 S8        29.62S WCI  18
HALSTAD          N/A     22  19  88 S10         N/A  WCI  12
FOSSTON        PTCLDY    21  21 100 S12       29.64F WCI   9
BAUDETTE       CLOUDY    32  27  81 CALM      29.58S
WASKISH        CLOUDY    34  30  86 SW7       29.61S
CROOKSTON      CLEAR     23  21  93 S8        29.64S WCI  14
$$
  *****  WEATHER ACROSS CENTRAL AND WEST MINNESOTA  *****

CITY           SKY/WX    TMP DP  RH WIND       PRES   REMARKS
BEMIDJI        PTCLDY    28  25  89 SW3       29.63S
PARK RAPIDS    PTCLDY    21  20  96 S5        29.66F WCI  15
WADENA         PTCLDY    21  21 100 CALM      29.68F FOG
DETROIT LAKES  PTCLDY    28  27  93 S6        29.68S WCI  22
MOORHEAD       PTCLDY    25  25 100 S10       29.67F WCI  15
FERGUS FALLS   CLEAR     25  23  93 S8        29.73S WCI  16
ELBOW LAKE       N/A     25  23  94 S7        29.70F WCI  17
MORRIS MN      CLEAR     27  25  93 S7        29.71S WCI  19
STAPLES        CLEAR     21  21 100 S5        29.70S FOG     WCI  15
WHEATON        CLEAR     27  23  86 S8        29.73S WCI  18
$$
  *****  WEATHER ELSEWHERE ACROSS MINNESOTA  *****

CITY           SKY/WX    TMP DP  RH WIND       PRES   REMARKS
DULUTH         PTCLDY    28  23  81 SW17      29.68F FOG     WCI  16
INTRNTL FALLS  CLOUDY    30  25  81 SW7       29.59S WCI  23
ELY            CLEAR     25  23  93 SW8       29.63S WCI  16
CLOQUET        PTCLDY    27  25  93 SW10      29.70F WCI  17
BRAINERD       CLEAR     26  24  92 S7        29.71F WCI  18
HIBBING        CLEAR     26  22  84 VRB3      29.66S
ALEXANDRIA     CLEAR     28  25  88 SW12      29.71F WCI  18
SAINT CLOUD    PTCLDY    31  26  82 S8        29.75F WCI  23
MINNEAPOLIS    CLOUDY    36  32  85 S10       29.81F FOG
$$

  *****  WEATHER ACROSS SOUTH DAKOTA  *****

CITY           SKY/WX    TMP DP  RH WIND       PRES   REMARKS
SIOUX FALLS    CLEAR     32  29  88 SW8       29.79F WCI  25
BROOKINGS      NOT AVBL
WATERTOWN      CLEAR     26  24  92 SE7       29.73F WCI  18
HURON          CLEAR     25  23  92 S5        29.75F FOG     WCI  19
SISSETON         N/A     33  27  78 CALM      29.69F
ABERDEEN       CLEAR     22  18  85 S10       29.72F WCI  11
MITCHELL       CLEAR     26  24  92 S6        29.77F FOG     WCI  19
PIERRE         CLEAR     25  23  92 SW3       29.71F
MOBRIDGE       CLEAR     29  25  85 SE7       29.65F WCI  22
RAPID CITY     CLEAR     25  19  78 SE3       29.66F
$$

  *****  SOME WEATHER IN NEARBY STATES *****

CITY           SKY/WX    TMP DP  RH WIND       PRES   REMARKS
GLASGOW MT     MOCLDY    31  27  85 E13       29.44F WCI  21
GREAT FALLS MT PTCLDY    44  29  55 SW20G26   29.32F
CHEYENNE WY    CLEAR     29  16  58 W10       29.86F WCI  20
SCOTTSBLUFF NE PTCLDY    21  16  81 CALM      29.81F
OMAHA NE       CLOUDY    36  35  96 SE8       29.93F FOG
DES MOINES IA  CLOUDY    39  36  89 S9        29.95F FOG
DAVENPORT IA   CLOUDY    35  32  88 S8        30.03F FOG
CHICAGO IL     RAIN      33  31  92 SW13      30.07F FOG     WCI  24
EAU CLAIRE WI  CLOUDY    34  29  82 S10       29.85F
LA CROSSE WI   CLOUDY    34  30  85 S9        29.91F
$$

  *****  SOME NATIONAL WEATHER *****

CITY           SKY/WX    TMP DP  RH WIND       PRES   REMARKS
LA GUARDIA NY  CLEAR     30  12  47 W5        30.48S
RALEIGH NC     CLEAR     26  16  65 CALM      30.55S
ATLANTA GA     CLEAR     40  32  73 E9        30.43S
NEW ORLEANS LA CLEAR     54  50  86 NE6       30.22S
OKLAHOMA CITY  DRIZZLE   62  59  90 SE10      30.01F FOG
ALBUQUERQUE NM PTCLDY    36  18  48 N10       30.09R
SALT LAKE CITY PTCLDY    39  24  55 SE7       29.95R
LOS ANGELES CA CLEAR     58  44  60 NE6       30.07S
BOISE ID       LGT RAIN  42  32  67 SE18      29.74F
SEATTLE WA     PTCLDY    47  39  74 SW8G17    29.60R
$$

*** WEATHER ACROSS MANITOBA...SASKATCHEWAN AND ONTARIO ***
                ***ONTARIO***

CITY           SKY/WX    TMP DP  RH WIND       PRES   REMARKS
GERALDTON      CLOUDY    28  23  80 SW14G24   29.50F WCI  17
THUNDER BAY    CLEAR     27  21  80 W2        29.63R
SIOUX LOOKOUT  FLURRIES  28  25  86 SW7       29.50S WCI  21
TORONTO        CLOUDY    25  18  74 S3        30.22F
BIG TROUT LK   FLURRIES  10   7  85 NW9       29.45R WCI  -2
PICKLE LAKE    NOT AVBL
DRYDEN         CLOUDY    28  27  93 SW10      29.52R WCI  19
KENORA         MOCLDY    28  25  86 NW8       29.55R WCI  20
$$
                *** MANITOBA***

CITY           SKY/WX    TMP DP  RH WIND       PRES   REMARKS
BRANDON        LGT SNOW  30  30 100 E12       29.57F WCI  21
DAUPHIN        NOT AVBL
ISLAND LAKE    LGT SNOW   9   5  85 NW8       29.59R WCI  -4
PILOT MOUND      N/A     34  32  93 SE1         N/A
THE PAS        FLURRIES  19  16  86 NE7       29.63S WCI  10
THOMPSON       CLEAR     -9 -15  77 VRB2      29.66R
WINNIPEG       FLURRIES  30  27  86 N8        29.61S WCI  23
LYNN LAKE      CLEAR    -13 -17  84 NW6       29.65R WCI -27
CHURCHILL      CRYSTALS  -6  -9  84 NW16      29.65R WCI -28
GILLAM         FLURRIES -11 -15  84 W9        29.63R WCI -29
$$
                ***SASKATCHEWAN***

CITY           SKY/WX    TMP DP  RH WIND       PRES   REMARKS
ESTEVAN        CLEAR     23  21  93 S6        29.53F WCI  16
KINDERSLEY     CLOUDY    30  28  93 E16       29.30F WCI  19
LLOYDMINSTER   FOG       27  27 100 E18G25    29.34F VSB 1/2 WCI  13
PRINCE ALBERT  CLOUDY    21  18  86 E9        29.55F WCI  11
REGINA         PTCLDY    25  25 100 SE8       29.48F WCI  16



USA.gov is the U.S. government's official web portal to all federal, state and local government web resources and services.